Weather History for KPIL - March, 2013

Change the Weather History Date:

Saturday, March 2, 2013

  Actual Average Record
Temperature  
Mean Temperature 57 °F -  
Max Temperature 66 °F - - ()
Min Temperature 48 °F - - ()
Degree Days  
Heating Degree Days 8    
Growing Degree Days 7 (Base 50)    
Moisture  
Dew Point 39 °F    
Average Humidity 51    
Maximum Humidity 71    
Minimum Humidity 32    
Precipitation  
Precipitation 0.00 in - - ()
Sea Level Pressure  
Sea Level Pressure 30.31 in    
Wind  
Wind Speed 10 mph (North)    
Max Wind Speed 24 mph    
Max Gust Speed 29 mph    
Visibility 9 miles    
Events      
T = Trace of Precipitation, MM = Missing Value Source: NWS Daily Summary

Daily Weather History Graph

Daily Weather History Graph

Search for Another Location

Airport or City:

Trip Planner

Search our weather history database for the weather conditions in past years. The results will help you decide how hot, cold, wet, or windy it might be!

Date:

Astronomy

Mar. 02, 2013 Rise Set
Actual Time 6:51 AM CST 6:31 PM CST
Civil Twilight 6:28 AM CST 6:54 PM CST
Nautical Twilight 6:01 AM CST 7:21 PM CST
Astronomical Twilight 5:34 AM CST 7:48 PM CST
Moon 11:35 PM CST (3/2) 9:54 AM CST (3/2)
Length of Visible Light 12h 26m
Length of Day
11h 40m
Waning Gibbous, 74% of the Moon is Illuminated
Mar 2
Waning Gibbous
Mar 4
Last Quarter
Mar 11
New
Mar 19
First Quarter
Mar 27
Full

Hourly Weather History & Observations

Time (CST) Temp. Dew Point Humidity Pressure Visibility Wind Dir Wind Speed Gust Speed Precip Events Conditions
12:53 AM 53.1 °F 42.1 °F 66% 30.23 in 10.0 mi SW 8.1 mph - N/A   Clear
1:53 AM 53.1 °F 42.1 °F 66% 30.25 in 10.0 mi West 4.6 mph - N/A   Clear
2:53 AM 51.1 °F 42.1 °F 71% 30.25 in 10.0 mi West 5.8 mph - N/A   Clear
3:53 AM 48.9 °F 37.0 °F 64% 30.24 in 10.0 mi WSW 8.1 mph - N/A   Clear
4:53 AM 50.0 °F 34.0 °F 54% 30.25 in 10.0 mi WNW 5.8 mph - N/A   Clear
5:53 AM 48.0 °F 33.1 °F 56% 30.28 in 10.0 mi West 5.8 mph - N/A   Clear
6:53 AM 48.0 °F 37.9 °F 68% 30.32 in 9.0 mi NNW 10.4 mph - N/A   Clear
7:53 AM 53.1 °F 44.1 °F 71% 30.34 in 9.0 mi NNW 9.2 mph - N/A   Clear
8:53 AM 62.1 °F 45.0 °F 53% 30.37 in 9.0 mi North 17.3 mph - N/A   Clear
9:53 AM 64.9 °F 37.0 °F 36% 30.39 in 9.0 mi North 19.6 mph 26.5 mph N/A   Clear
10:53 AM 66.0 °F 37.9 °F 36% 30.40 in 9.0 mi North 24.2 mph 28.8 mph N/A   Clear
11:53 AM 66.0 °F 37.0 °F 34% 30.40 in 9.0 mi North 19.6 mph 27.6 mph N/A   Clear
12:53 PM 66.0 °F 35.1 °F 32% 30.37 in 9.0 mi NNE 17.3 mph 27.6 mph N/A   Clear
1:53 PM 66.0 °F 37.0 °F 34% 30.33 in 9.0 mi NNE 18.4 mph 27.6 mph N/A   Clear
2:53 PM 66.9 °F 37.0 °F 33% 30.31 in 9.0 mi North 12.7 mph - N/A   Clear
3:53 PM 66.0 °F 39.0 °F 37% 30.29 in 8.0 mi ENE 15.0 mph - N/A   Clear
4:53 PM 64.0 °F 39.0 °F 40% 30.28 in 9.0 mi ENE 16.1 mph - N/A   Clear
5:53 PM 62.1 °F 39.9 °F 44% 30.29 in 8.0 mi NE 12.7 mph - N/A   Clear
6:53 PM 59.0 °F 39.0 °F 48% 30.30 in 10.0 mi ENE 6.9 mph - N/A   Clear
7:53 PM 57.9 °F 37.9 °F 47% 30.31 in 10.0 mi East 3.5 mph - N/A   Clear
8:53 PM 57.0 °F 39.9 °F 53% 30.32 in 10.0 mi ENE 4.6 mph - N/A   Clear
9:53 PM 55.0 °F 41.0 °F 59% 30.32 in 10.0 mi ENE 5.8 mph - N/A   Clear
11:53 PM 54.0 °F 42.1 °F 64% 30.31 in 10.0 mi East 3.5 mph - N/A   Clear